962  
ASUS43 KLMK 011310  
RWRKY  
KENTUCKY REGIONAL WEATHER ROUNDUP  
NATIONAL WEATHER SERVICE LOUISVILLE KY  
900 AM EDT SAT NOV 01 2014  
 
NOTE "FAIR" INDICATES FEW OR NO CLOUDS BELOW 12,000 FEET  
WITH NO SIGNIFICANT WEATHER AND/OR S TO VISIBILITY
.  
 
KYZ001>023-026-027-061>063-070>075-011400-  
WESTERN AND SOUTH CENTRAL KENTUCKY  
 
CITY SKY/WX TMP DP RH WIND PRES REMARKS
 
PADUCAH CLEAR 33 24 69 NW7 30.37R WCI 27  
HENDERSON CLEAR 34 25 69 NW12 30.34R WCI 25  
OWENSBORO CLEAR 36 27 70 N12G20 30.31R WCI 28  
HOPKINSVILLE CLEAR 35 27 72 NW12G21 30.29R WCI 27  
BOWLING GREEN MOCLDY 36 25 64 VRB5 30.26R WCI 32  
GLASGOW CLOUDY 35 27 73 N12G18 30.22R WCI 26  

 
 
KYZ024-025-028>034-038-045-046-053-011400-  
NORTH CENTRAL KENTUCKY  
 
CITY SKY/WX TMP DP RH WIND PRES REMARKS
 
LOUISVILLE/SDF CLOUDY 36 26 67 N16G25 30.24R WCI 26  
LOUISVILLE/LOU CLOUDY 35 26 69 N15G23 30.25R WCI 25  
FORT KNOX CLOUDY 34 25 71 NW12G21 30.23R WCI 25  

 
 
KYZ035>037-039>044-047>052-055>060-089>105-011400-  
NORTHEAST KENTUCKY  
 
CITY SKY/WX TMP DP RH WIND PRES REMARKS
 
LEXINGTON CLOUDY 36 30 79 N16G25 30.15R WCI 26  
COVINGTON FLURRIES 34 29 82 N16G31 30.19R WCI 24  
FRANKFORT FLURRIES 34 29 82 N13G23 30.18R WCI 25  

 
 
KYZ054-064>069-076>088-106>120-011400-  
SOUTHEAST KENTUCKY  
 
CITY SKY/WX TMP DP RH WIND PRES REMARKS
 
JACKSON CLOUDY 33 31 92 VRB5 30.04R WCI 29  
LONDON CLOUDY 34 30 85 NW10 30.08R FOG WCI 26  
SOMERSET LGT SNOW 32 32 100 N12 30.15R WCI 23  
MIDDLESBORO LGT SNOW 34 31 88 N15G22 30.05R WCI 24  
MONTICELLO FLURRIES 35 32 89 NW7G18 30.17R WCI 29  

 
 
CLICK HERE TO GO TO PREVIOUS BULLETINS.

The Nexlab KY Page Main Text Page